AirNav   Phillips 66 Aviation Fuel
 
 485 users online  

75WI Smies Airport
Cedar Grove, Wisconsin, USA

GOING TO CEDAR GROVE?


FAA INFORMATION EFFECTIVE 26 APRIL 2018

Location

FAA Identifier: 75WI
Lat/Long: 43-35-19.9910N / 087-47-03.3150W
43-35.333183N / 087-47.055250W
43.5888864 / -87.7842542
(estimated)
Elevation: 640 ft. / 195 m (estimated)
Variation: 02W (1985)
From city: 2 miles SW of CEDAR GROVE, WI
Time zone: UTC -5 (UTC -6 during Standard Time)
Zip code: 53070

Airport Operations

Airport use: Private use. Permission required prior to landing
Activation date: 11/1978
Control tower: no
ARTCC: CHICAGO CENTER
FSS: GREEN BAY FLIGHT SERVICE STATION
Attendance: UNATNDD
Wind indicator: no
Segmented circle: no

Airport Communications

WX ASOS at SBM (11 nm N): 110.0 (920-467-0744)
WX AWOS-3 at ETB (18 nm SW): 120.0 (262-334-6161)

Nearby radio navigation aids

VOR radial/distance  VOR name  Freq  Var
FAHr167/11.2FALLS VOR/DME110.0002W
BJBr057/(17.9)WEST BEND VOR109.8001W
LJTr023/30.8TIMMERMAN VOR/DME112.5002W
MTWr190/32.7MANITOWOC VOR/DME111.0002W
BAEr036/35.8BADGER VOR/DME116.4002E

Airport Services

Runway Information

Runway N/S

Dimensions: 900 x 60 ft. / 274 x 18 m
Surface: turf
RUNWAY N  RUNWAY S
Traffic pattern: leftleft

Airport Ownership and Management from official FAA records

Ownership: Privately-owned
Owner: DONALD SMIES
RR2
OOSTBURG, WI 53070
Phone 414-564-2746
Manager: DONALD SMIES
RR 2
OOSTBURG, WI 53070
Phone 414-564-2746

Airport Operational Statistics

Aircraft based on the field: 1
Single engine airplanes: 1
    

Instrument Procedures

There are no published instrument procedures at 75WI.

Some nearby airports with instrument procedures:

KSBM - Sheboygan County Memorial Airport (11 nm N)
KETB - West Bend Municipal Airport (18 nm SW)
8D1 - New Holstein Municipal Airport (26 nm NW)
KHXF - Hartford Municipal Airport (30 nm SW)
KMWC - Lawrence J Timmerman Airport (31 nm S)
 
Loc | Ops | Rwys | IFR | FBO | Links
Com | Nav | Svcs | Stats | Notes

AirNav Hotels Sweepstakes
 
Area around 75WI (Smies Airport)
 
Road maps at: MapQuest Bing Google
 
Aerial photo
No photo
 
Sectional chart

 
Airport distance calculator
Flying to Smies Airport? Find the distance to fly.

From to 75WI

Sunrise and sunset
Times for 22-May-2018
 Local
(UTC-5)
 Zulu
(UTC)
Morning civil twilight04:4709:47
Sunrise05:2010:20
Sunset20:1501:15
Evening civil twilight20:4901:49

Current date and time
Zulu (UTC)  22-May-2018 10:30:08
Local (UTC-5)  22-May-2018 05:30:08
 
METAR
KSBM 
12nm N 
220953Z AUTO 02003KT 1/4SM FG VV002 09/09 A3000 RMK AO2 RAB32E42 SLP162 P0000 T00940094 TSNO
KETB 
18nm SW 
221015Z AUTO 00000KT 3SM BR OVC002 09/09 A3000 RMK AO2
TAF
KMTW 
32nm N 
220701Z 2207/2306 36003KT 1SM BR OVC003 FM221000 01004KT 1SM -SHRA BR OVC002 FM221400 36005KT 5SM BR OVC008 FM221500 01006KT P6SM OVC016 FM221600 06005KT P6SM SCT070
KUES 
38nm SW 
220520Z 2206/2306 VRB03KT 3/4SM -DZ BR OVC002 FM220800 36004KT 1/4SM -DZ FG OVC002 FM221200 35005KT 3/4SM BR OVC005 FM221600 36006KT 3SM BR BKN005 FM221700 01006KT 6SM BR BKN008 FM221800 02006KT P6SM BKN015 FM222100 03006KT P6SM SCT030 FM230200 00000KT P6SM FEW070
KMKE 
39nm S 
220520Z 2206/2312 36004KT 1SM -DZ BR OVC002 FM220700 36004KT 1/4SM -DZ FG OVC002 FM221200 35005KT 3/4SM BR OVC005 FM221600 36006KT 3SM BR BKN005 FM221700 01006KT 6SM BR BKN008 FM221800 02006KT P6SM BKN015 FM222100 03006KT P6SM SCT030 FM230200 00000KT P6SM FEW070
NOTAMs
Click for the latest NOTAMs
NOTAMs are issued by the DoD/FAA and will open in a separate window not controlled by AirNav.

 

 
 

Would you like to see your business listed on this page?

 If your business provides an interesting product or service to pilots, flight crews, aircraft, or users of the Smies Airport, you should consider listing it here.  To start the listing process, click on the button below
 
Add a business
 

Other Pages about Smies Airport

Update a link
 
Copyright © AirNav, LLC. All rights reserved. Privacy Policy  Contact